Total_Precipitation_Accumulation
2.33 2.55 2.62 2.89 2.78 2.74 2.97 3.38 3.36 3.55 3.58 3.52 3.29 2.90 2.84 2.68 2.41 2.51 2.59 2.47 2.37 2.64 3.21 3.62 3.52 3.27 2.96 2.90 2.83 2.65 2.34 2.14 1.97 1.64 1.43 1.46 1.45 1.35 1.24 1.18 1.09 0.98 0.78
2.90 3.18 3.22 3.31 3.04 2.96 3.30 3.59 3.69 4.18 4.12 3.94 3.42 3.13 2.99 2.90 2.64 2.51 2.70 2.79 2.45 2.41 2.85 3.61 3.91 3.71 3.47 3.40 3.17 2.89 2.60 2.34 2.26 1.83 1.49 1.42 1.48 1.48 1.40 1.32 1.12 0.95 0.76
3.35 3.61 3.54 3.39 3.31 3.25 3.54 3.87 4.04 4.18 3.94 3.76 3.58 3.38 3.22 2.98 2.57 2.56 2.60 2.81 2.65 2.46 2.74 3.19 3.65 3.78 3.86 3.89 3.63 3.31 2.87 2.50 2.23 1.90 1.50 1.37 1.43 1.45 1.38 1.31 1.13 0.92 0.69
3.44 3.89 3.65 3.42 3.69 3.48 3.70 4.29 4.35 4.31 4.27 4.02 3.81 3.46 3.25 3.08 2.58 2.46 2.44 2.72 3.08 2.66 2.74 3.11 3.34 3.47 3.98 4.28 4.23 4.03 3.52 2.95 2.41 2.03 1.65 1.49 1.51 1.46 1.35 1.24 1.16 0.94 0.69
3.28 3.66 3.53 3.56 3.59 3.87 3.95 3.69 4.34 4.47 4.34 4.11 3.49 3.27 2.91 2.77 2.67 2.37 2.49 2.58 2.95 2.77 2.75 2.82 3.11 3.30 3.91 4.62 5.00 4.88 4.43 3.82 3.11 2.60 2.30 2.13 2.08 1.89 1.58 1.37 1.19 1.03 0.79
3.15 3.61 3.42 3.39 3.45 3.85 3.91 3.90 4.35 4.35 4.08 4.04 3.22 2.98 2.81 2.41 2.40 2.45 2.30 2.48 2.66 2.30 2.47 2.79 3.26 2.90 3.17 3.67 4.60 5.08 5.09 4.79 4.22 3.88 3.66 3.29 3.01 2.56 1.95 1.54 1.30 1.15 0.95
3.02 3.50 3.19 3.51 3.43 3.59 3.66 3.66 3.99 4.12 3.78 3.84 3.81 3.33 2.63 2.22 2.17 2.18 2.22 2.37 2.36 2.41 2.91 3.41 3.54 3.43 3.22 3.08 3.46 4.14 4.97 5.25 4.77 4.32 4.22 4.13 3.95 3.31 2.49 1.94 1.55 1.30 1.14
2.83 3.00 3.23 3.16 3.19 3.38 3.39 3.46 3.81 3.81 3.42 3.55 3.81 3.88 3.13 2.78 2.26 1.74 2.09 2.21 2.28 2.60 2.79 2.95 3.31 3.63 3.70 3.98 3.41 3.28 4.02 4.73 4.84 4.57 4.24 4.27 4.18 3.47 2.76 2.41 2.00 1.57 1.40
2.62 2.71 2.91 2.94 2.96 2.84 3.09 3.34 3.33 3.39 3.34 3.31 3.36 3.80 3.51 3.08 2.58 2.01 1.90 2.01 2.30 2.55 2.55 2.75 2.79 3.09 3.33 3.93 3.98 3.51 3.31 3.53 4.11 4.71 4.66 4.33 4.02 3.41 2.94 2.76 2.51 2.09 1.82
2.38 2.46 2.54 2.55 2.59 2.57 2.87 2.65 2.74 3.07 3.34 3.20 3.12 3.06 3.14 3.27 3.14 2.50 2.02 1.92 2.14 2.30 2.30 2.26 2.50 2.85 2.94 3.28 3.62 3.56 3.21 2.88 3.15 3.85 4.42 4.42 4.05 3.43 3.11 3.09 3.23 3.01 2.48
2.25 2.17 2.32 2.39 2.38 2.33 2.43 2.50 2.82 2.84 2.99 3.00 2.98 2.98 3.09 3.13 2.96 2.77 2.41 2.25 2.18 1.95 1.94 2.08 2.29 2.64 2.84 3.04 3.36 3.39 3.42 2.88 2.82 2.99 3.39 3.79 3.93 3.80 3.48 3.42 3.74 3.84 3.48
2.06 2.01 2.10 2.33 2.25 2.20 2.32 2.42 2.53 2.55 2.67 2.78 2.77 2.77 3.00 2.87 2.80 2.90 2.61 2.45 2.35 2.02 1.97 2.05 2.18 2.41 2.56 2.71 2.63 2.93 2.97 2.66 2.50 2.41 2.40 2.70 3.09 3.37 3.51 3.67 4.06 4.28 4.25
1.79 1.77 1.89 2.06 2.03 2.05 2.15 2.31 2.34 2.44 2.58 2.62 2.56 2.56 2.64 2.62 2.68 2.82 2.93 2.66 2.46 2.11 2.09 2.00 2.03 2.28 2.32 2.59 2.54 2.44 2.21 2.12 1.97 1.85 1.91 2.00 2.18 2.48 2.73 3.09 3.62 4.01 4.19
1.63 1.69 1.77 1.78 1.85 1.90 1.92 2.29 2.33 2.42 2.54 2.47 2.32 2.67 2.56 2.35 2.51 2.67 2.92 3.14 2.94 2.51 2.45 2.30 2.07 2.02 2.14 2.26 2.26 2.08 1.72 1.66 1.53 1.46 1.46 1.52 1.64 1.77 1.93 2.13 2.45 2.71 3.01
1.80 1.81 1.77 1.79 1.87 2.00 2.15 2.41 2.47 2.47 2.56 2.51 2.55 2.69 2.54 2.34 2.34 2.40 2.82 3.17 3.37 3.04 2.77 2.59 2.37 2.05 2.01 1.97 2.03 1.81 1.76 1.61 1.39 1.34 1.28 1.22 1.27 1.39 1.53 1.61 1.70 1.81 1.90
1.99 1.97 1.96 1.95 1.91 2.00 2.20 2.40 2.45 2.46 2.56 2.61 2.65 2.76 2.73 2.53 2.51 2.50 2.78 3.09 3.32 3.44 3.03 2.70 2.64 2.31 2.10 1.85 2.03 1.84 1.75 1.70 1.43 1.30 1.25 1.14 1.10 1.13 1.17 1.25 1.31 1.36 1.43
1.88 1.82 1.79 1.81 1.83 1.92 2.04 2.13 2.09 2.14 2.20 2.36 2.31 2.45 2.59 2.71 2.68 2.69 2.85 3.01 3.25 3.50 3.12 2.90 3.02 2.83 2.52 2.24 2.08 2.00 1.79 1.65 1.48 1.35 1.17 1.09 1.06 1.06 1.10 1.15 1.16 1.21 1.27
1.58 1.48 1.53 1.58 1.58 1.60 1.70 1.68 1.67 1.80 1.98 2.17 2.31 2.45 2.37 2.46 2.50 2.52 2.72 2.97 3.21 3.43 3.28 3.19 3.35 3.28 2.97 2.60 2.44 2.29 1.92 1.72 1.60 1.55 1.31 1.13 1.09 1.08 1.07 1.13 1.17 1.17 1.19
1.28 1.28 1.36 1.42 1.41 1.44 1.43 1.43 1.53 1.65 1.79 1.97 2.13 2.16 2.08 2.19 2.22 2.40 2.51 2.67 2.91 3.16 3.24 3.17 3.29 3.33 3.07 2.83 2.70 2.34 2.09 2.05 1.71 1.68 1.56 1.32 1.17 1.13 1.15 1.16 1.17 1.19 1.18
1.23 1.27 1.37 1.43 1.42 1.47 1.51 1.64 1.72 1.78 1.86 1.87 1.83 1.80 1.76 1.84 1.98 2.24 2.34 2.44 2.61 2.84 2.95 3.00 3.14 3.18 3.05 2.97 2.91 2.57 2.36 2.26 1.98 1.65 1.65 1.44 1.33 1.25 1.20 1.16 1.17 1.22 1.29
1.23 1.29 1.41 1.50 1.56 1.53 1.44 1.65 1.78 1.72 1.80 1.78 1.68 1.52 1.42 1.51 1.64 1.80 1.76 2.01 2.24 2.44 2.56 2.72 2.91 3.12 2.99 2.99 2.83 2.69 2.48 2.40 2.27 1.96 1.90 1.62 1.44 1.29 1.16 1.12 1.12 1.18 1.32
1.28 1.27 1.28 1.38 1.37 1.14 1.26 1.45 1.57 1.60 1.70 1.73 1.61 1.46 1.33 1.34 1.40 1.47 1.51 1.59 1.77 1.99 2.20 2.48 2.67 2.85 2.73 2.71 2.84 2.80 2.70 2.50 2.41 2.26 2.33 2.18 1.89 1.70 1.41 1.13 1.10 1.12 1.22
1.32 1.33 1.31 1.34 1.32 1.26 1.34 1.33 1.33 1.43 1.55 1.57 1.62 1.62 1.35 1.12 1.27 1.26 1.35 1.35 1.43 1.57 1.80 2.13 2.31 2.39 2.54 2.57 2.84 2.90 3.01 2.89 2.71 2.61 2.73 2.68 2.50 2.29 1.64 1.42 1.36 1.15 1.10
1.35 1.38 1.38 1.36 1.42 1.40 1.41 1.28 1.30 1.30 1.42 1.49 1.51 1.49 1.46 1.39 1.30 1.28 1.32 1.33 1.22 1.28 1.44 1.50 1.68 1.98 2.46 2.74 2.77 2.82 3.06 3.04 2.81 2.70 2.78 2.86 2.66 2.54 2.02 1.58 1.37 1.09 0.99
1.37 1.35 1.34 1.30 1.31 1.39 1.45 1.33 1.28 1.25 1.39 1.46 1.46 1.42 1.38 1.38 1.40 1.27 1.31 1.30 1.22 1.19 1.25 1.36 1.47 1.69 1.98 2.30 2.49 2.56 2.65 2.80 2.82 2.76 2.79 2.92 2.84 2.73 2.68 2.32 1.70 1.33 1.05
1.52 1.48 1.41 1.37 1.35 1.38 1.39 1.21 1.15 1.13 1.26 1.34 1.43 1.34 1.22 1.16 1.20 1.16 1.23 1.31 1.21 1.18 1.24 1.25 1.26 1.35 1.51 1.71 1.82 1.78 1.90 2.09 2.27 2.44 2.40 2.63 2.88 2.95 3.12 3.03 2.46 1.84 1.44